Regional Weather Roundup
Issued by NWS

Home | Current Version | Previous Version | Text Only | Print | Product List | Glossary On
Versions: 1 2 3 4 5 6 7 8 9 10 11 12 13 14 15 16 17 18 19 20 21 22 23 24 25 26 27 28 29 30 31 32 33 34 35 36 37 38 39 40 41 42 43 44 45 46 47 48 49 50
000
ASUS43 KMPX 251710
RWRMN
WEATHER ROUNDUP FOR MINNESOTA
NATIONAL WEATHER SERVICE TWIN CITIES/CHANHASSEN MN
1200 PM CDT THU AUG 25 2016


NOTE: "FAIR" INDICATES FEW OR NO CLOUDS BELOW 12,000 FEET WITH NO
SIGNIFICANT WEATHER AND/OR OBSTRUCTIONS TO VISIBILITY. N/A MEANS
CURRENT SKY AND/OR WEATHER CONDITIONS ARE NOT AVAILABLE.

MNZ060>063-068>070-251800-
   Twin Cities Metro

CITY           SKY/WX    TMP DP  RH WIND       PRES   REMARKS
TWIN CITIES    PTSUNNY   72  52  49 W21       30.05S
ST PAUL        MOSUNNY   72  55  55 W12       30.05S
CRYSTAL        MOSUNNY   70  51  51 W14G20    30.04R
BLAINE         PTSUNNY   72  55  56 W12G17    30.05R
LAKEVILLE      MOSUNNY   70  55  60 W12       30.07S
EDEN PRAIRIE   PTSUNNY   70  52  52 W14G22    30.06R
LAKEVILLE      MOSUNNY   70  55  60 W12       30.07S
SOUTH ST PAUL  MOSUNNY   72  53  52 W12G18    30.05S
LAKE ELMO      FAIR      72  55  56 W14G20    30.06S
$$
MNZ001>005-007-008-013>017-022>024-027-028-251800-
   Northwest Minnesota

CITY           SKY/WX    TMP DP  RH WIND       PRES   REMARKS
BEMIDJI        CLOUDY    61  55  79 W15G24    29.97S
HALLOCK        PTSUNNY   61  55  82 NW14G23   29.99R
ROSEAU         CLOUDY    57  54  88 NW16      29.94R HAZE
WARROAD        CLOUDY    61  57  88 NW16      29.92R
THIEF RVR FALL CLOUDY    59  54  83 NW20G26   30.00R
CROOKSTON      PTSUNNY   61  54  77 NW20G26   30.01R
FOSSTON        CLOUDY    61  55  82 NW12G17   30.00R
DETROIT LAKES  CLOUDY    61  54  77 W13G20    30.04R
MOORHEAD       CLOUDY    64  54  68 W15       30.05R
PARK RAPIDS    CLOUDY    62  53  72 W17       30.01R
MAHNOMEN       CLOUDY    59  56  91 NW15      30.01R
$$
MNZ006-009>011-018-025>026-251800-
   North Central Minnesota

CITY           SKY/WX    TMP DP  RH WIND       PRES   REMARKS
BAUDETTE       CLOUDY    62  56  80 W12       29.89R
FLAG ISLAND    CLOUDY    61  55  82 NW9       29.88R
INTL FALLS     LGT RAIN  60  54  80 W9        29.89R
WASKISH        CLOUDY    61  57  88 W18G25    29.93R
BIG FORK       CLOUDY    63  54  72 SW12      29.94S
LONGVILLE      CLOUDY    61  54  77 W9G16     29.99R
GRAND RAPIDS   CLOUDY    63  53  70 W8        29.98R
CRANE LAKE     CLOUDY    61  54  77 W8        29.92R
ORR            CLOUDY    61  52  72 CALM      29.90S
COOK           CLOUDY    61  54  77 SW10      29.94R
WALKER         CLOUDY    59  53  78 W12       29.99R
$$
MNZ012-019>021-037-251800-
   Northeast Minnesota

CITY           SKY/WX    TMP DP  RH WIND       PRES   REMARKS
DULUTH         MOSUNNY   70  54  56 W17G24    29.95S
ELY            CLOUDY    63  52  67 W18G25    29.92R
HIBBING        CLOUDY    62  52  69 W8        29.95R
EVELETH        PTSUNNY   63  51  65 W10G18    29.95S
DULUTH HARBOR  MOSUNNY   73  55  53 SW20      29.93S
TWO HARBORS    MOSUNNY   72  57  60 W15G21    29.91S
SILVER BAY     MOSUNNY   73  55  53 SW6       29.90R
GRAND MARAIS     N/A     66  54  65 SW15      29.86S
G MARAIS ARPRT PTSUNNY   66  48  52 W9G17     29.91R
$$
MNZ029>031-032-039>041-046>048-054>057-064-251800-
   West Central Minnesota

CITY           SKY/WX    TMP DP  RH WIND       PRES   REMARKS
FERGUS FALLS   CLOUDY    61  54  77 W13G18    30.08S
WHEATON        PTSUNNY   66  55  68 W16G22    30.09F
MORRIS         PTSUNNY   64  54  68 NW12G21   30.08S
ALEXANDRIA     CLOUDY    61  51  70 W18G24    30.08S
ELBOW LAKE     CLOUDY    62  53  73 NW14G20   30.07S
WADENA         CLOUDY    59  54  82 W9G21     30.04R
GLENWOOD       PTSUNNY   63  54  72 W13       30.09R
APPLETON       MOSUNNY   66  52  59 NW16      30.09S
BENSON         CLOUDY    64  52  63 NW14G20   30.09S
ORTONVILLE     CLOUDY    64  52  63 W14       30.10S
MADISON        MOSUNNY   66  54  63 NW9       30.11S
WILLMAR        FAIR      68  55  64 W17       30.11R
$$
MNZ033>034-036-042>043-049>051-058-059-251800-
   Central Minnesota

CITY           SKY/WX    TMP DP  RH WIND       PRES   REMARKS
ST CLOUD       MOSUNNY   67  54  63 W17       30.06R
SAUK CENTRE    CLOUDY    60  52  74 W14       30.08R
PAYNESVILLE    CLOUDY    65  52  63 W12G18    30.09R
AITKIN         CLOUDY    66  52  59 SW9G16    29.99S
PINE RIVER     CLOUDY    61  52  72 W10G18    30.04R
BRAINERD       CLOUDY    64  52  64 W16       30.02S
STAPLES        CLOUDY    61  52  72 W15       30.04R
LONG PRAIRIE   CLOUDY    59  52  77 SW13      30.07R
LITTLE FALLS   CLOUDY    63  50  63 W12       30.05R
LITCHFIELD     CLOUDY    66  55  68 W13G21    30.08S
BUFFALO        MOSUNNY   67  53  60 W14       30.07S
MAPLE LAKE     MOSUNNY   68  56  67 W8        30.07S
HUTCHINSON     SUNNY     65  56  73 W10       30.10
$$
MNZ037-044-045-052-053-251800-
   East Central Minnesota

CITY           SKY/WX    TMP DP  RH WIND       PRES   REMARKS
PRINCETON      CLOUDY    70  55  60 W14G20    30.04R
MORA           PTSUNNY   66  52  59 W13G18    30.04R
CAMBRIDGE      CLOUDY    72  55  56 SW10G16   30.02R
RUSH CITY      CLOUDY    69  55  60 W9G20     30.03R
MOOSE LAKE     PTSUNNY   68  54  60 W12G22    29.98R
HINCKLEY       PTSUNNY   68  54  60 W17G24    30.01S
CLOQUET        PTSUNNY   66  52  59 W15G26    29.97R
MCGREGOR       CLOUDY    63  52  67 W8        30.00S
$$
MNZ071>073-080-081-089-090-097-098-251800-
   Southwest Minnesota

CITY           SKY/WX    TMP DP  RH WIND       PRES   REMARKS
MONTEVIDEO     MOSUNNY   66  55  68 NW12      30.12S
GRANITE FALLS  PTSUNNY   66  56  69 W10G17    30.13S
CANBY          MOSUNNY   67  55  64 W10       30.14R
MARSHALL       MOSUNNY   66  54  65 W10G17    30.13S
REDWOOD FALLS  PTSUNNY   65  53  65 W12       30.11R
OLIVIA         PTSUNNY   64  54  68 W12       30.10R
PIPESTONE      MOSUNNY   64  54  68 NW13G18   30.15S
WINDOM         CLOUDY    68  54  60 W7        30.13S
WORTHINGTON    PTSUNNY   65  53  65 W6        30.16R
JACKSON        CLOUDY    68  52  56 W6        30.15S
TRACY          CLOUDY    67  56  69 W7        30.13S
SLAYTON        PTSUNNY   63  54  72 W8        30.15R
$$
MNZ065>067-074>077-082>085-091>093-251800-
   South Central Minnesota

CITY           SKY/WX    TMP DP  RH WIND       PRES   REMARKS
MANKATO        CLOUDY    68  54  60 W9        30.10S
NEW ULM          N/A     64  55  72 NW12      30.11R
ST JAMES       PTSUNNY   63  52  67 W6        30.13S
FAIRMONT       CLOUDY    68  56  65 NW7       30.13S
GLENCOE        MOSUNNY   66  58  75 W9        30.09R
FARIBAULT      CLOUDY    72  59  64 W9        30.09S
OWATONNA       CLOUDY    70  57  64 SW6       30.10R
WASECA         CLOUDY    70  59  68 W7        30.12R
ALBERT LEA     CLOUDY    70  61  73 CALM      30.12R
$$
MNZ078>079-086>088-094>096-251800-
   Southeast Minnesota

CITY           SKY/WX    TMP DP  RH WIND       PRES   REMARKS
ROCHESTER      MOSUNNY   74  60  61 SW13      30.09S
RED WING       CLOUDY    75  57  53 W9        30.04S
STANTON        MOSUNNY   73  59  60 W9        30.06S
DODGE CENTER   MOSUNNY   70  59  68 W10       30.10S
WINONA         PTSUNNY   77  55  47 W7        30.06S
AUSTIN         CLOUDY    72  59  64 W7        30.10S
PRESTON        MOSUNNY   73  59  60 W10       30.10S
$$
ABBREVIATIONS USED IN REMARKS
   TC - TEMPERATURES IN CELSIUS
  WCI - WIND CHILL INDEX
   HX - HEAT INDEX
  VSB - VISIBILITY
$$




USA.gov is the U.S. government's official web portal to all federal, state and local government web resources and services.